Location: Morris County Observatory
(40.8287°N, 74.5644°W)
Time: 03:24:44
(UTC-05:00)

Hubble Space Telescope - Visible Passes

Search period start: 01 December 2020 00:00
Search period end: 11 December 2020 00:00
Orbit: 536 x 540 km, 28.5° (Epoch: 30 November)

Date Brightness Start Highest point End Pass type
(mag) Time Alt. Az. Time Alt. Az. Time Alt. Az.
03 Dec 3.4 17:49:45 10° S 17:50:17 10° SSE 17:50:48 10° SSE visible
04 Dec 3.3 17:37:57 10° S 17:39:21 11° SSE 17:40:45 10° SSE visible
04 Dec 3.6 19:17:28 10° SW 19:17:55 11° SSW 19:17:55 11° SSW visible
05 Dec 3.3 17:26:36 10° SSW 17:28:25 13° S 17:30:15 10° SE visible
05 Dec 3.4 19:06:37 10° SW 19:07:47 13° SSW 19:07:47 13° SSW visible
06 Dec 3.3 17:15:25 10° SSW 17:17:30 14° S 17:19:34 10° SE visible
06 Dec 3.3 18:55:51 10° SW 18:57:41 13° S 18:57:41 13° S visible
07 Dec 3.3 17:04:21 10° SSW 17:06:35 14° S 17:08:48 10° SE visible
07 Dec 3.3 18:45:10 10° SW 18:47:00 13° S 18:47:38 12° S visible
08 Dec 3.4 18:34:38 10° SSW 18:36:03 12° SSW 18:37:29 10° S visible
09 Dec 3.6 18:24:32 10° SSW 18:25:07 10° SSW 18:25:42 10° S visible
